Year,Month,Day,Hour,Minute,Value (Times are PST for windspeed in km/hr)
2008,10,07,00,00,30.00
2008,10,07,00,01,20.20
2008,10,07,00,02,26.20
2008,10,07,00,03,28.20
2008,10,07,00,04,31.90
2008,10,07,00,05,36.50
2008,10,07,00,06,27.80
2008,10,07,00,07,32.40
2008,10,07,00,08,29.30
2008,10,07,00,09,28.00
2008,10,07,00,10,31.20
2008,10,07,00,11,16.20
2008,10,07,00,12,23.80
2008,10,07,00,13,28.40
2008,10,07,01,02,30.10
2008,10,07,01,03,26.60
2008,10,07,01,04,34.40
2008,10,07,01,05,32.30
2008,10,07,01,06,34.40
2008,10,07,01,07,28.00
2008,10,07,01,08,22.30
2008,10,07,01,09,26.80
2008,10,07,01,10,12.50
2008,10,07,01,11,20.30
2008,10,07,01,12,21.50
2008,10,07,01,13,28.90
2008,10,07,01,14,25.70
2008,10,07,01,15,29.70
2008,10,07,01,16,25.60
2008,10,07,01,17,24.60
2008,10,07,01,18,23.20
2008,10,07,01,19,31.60
2008,10,07,01,20,27.90
2008,10,07,01,21,21.40
2008,10,07,01,22,17.10
2008,10,07,01,23,25.30
2008,10,07,01,24,23.70
2008,10,07,01,25,29.10
2008,10,07,01,26,25.40
2008,10,07,01,27,25.80
2008,10,07,01,28,27.30
2008,10,07,01,29,22.30
2008,10,07,01,30,28.20
2008,10,07,01,31,22.00
2008,10,07,01,32,20.50
2008,10,07,01,33,30.80
2008,10,07,01,34,31.70
2008,10,07,01,35,26.50
2008,10,07,01,36,22.40
2008,10,07,01,37,23.90
2008,10,07,01,38,26.10
2008,10,07,01,39,13.30
2008,10,07,01,40,26.00
2008,10,07,01,41,14.40
2008,10,07,01,42,14.70
2008,10,07,01,43,17.30
2008,10,07,01,44,28.70
2008,10,07,01,45,19.00
2008,10,07,01,46,20.40
2008,10,07,01,47,19.60
2008,10,07,01,48,24.20
2008,10,07,01,49,23.90
2008,10,07,01,50,21.90
2008,10,07,01,51,24.60
2008,10,07,01,52,18.40
2008,10,07,01,53,22.20
2008,10,07,01,54,19.70
2008,10,07,01,55,23.10
2008,10,07,06,45,8.50
2008,10,07,06,46,13.00
2008,10,07,06,47,10.20
2008,10,07,06,48,12.00
2008,10,07,06,49,11.80
2008,10,07,06,50,12.50
2008,10,07,06,51,9.80
2008,10,07,06,52,10.00
2008,10,07,06,53,9.80
2008,10,07,06,54,6.60
2008,10,07,06,55,8.60
2008,10,07,06,56,8.60
2008,10,07,06,57,11.80
2008,10,07,06,58,11.60
2008,10,07,06,59,13.20
2008,10,07,07,00,12.80
2008,10,07,07,01,7.50
2008,10,07,07,02,4.30
2008,10,07,07,03,10.00
2008,10,07,07,04,7.10
2008,10,07,07,05,8.80
2008,10,07,07,06,9.30
2008,10,07,07,07,8.50
2008,10,07,07,08,7.30
2008,10,07,07,09,9.40
2008,10,07,07,10,9.70
2008,10,07,07,11,5.10
2008,10,07,07,12,10.00
2008,10,07,07,13,8.50
2008,10,07,07,14,5.10
2008,10,07,07,15,6.00
2008,10,07,07,16,8.00
2008,10,07,07,17,3.90
2008,10,07,07,18,6.50
2008,10,07,07,19,10.30
2008,10,07,07,20,5.70
2008,10,07,07,21,6.20
2008,10,07,07,22,10.80
2008,10,07,07,23,5.30
2008,10,07,07,24,10.80
2008,10,07,07,25,9.90
2008,10,07,07,26,7.60
2008,10,07,07,27,11.90
2008,10,07,07,28,10.60
2008,10,07,07,29,8.50
2008,10,07,07,30,6.50
2008,10,07,07,31,2.10
2008,10,07,07,32,7.60
2008,10,07,07,33,10.80
2008,10,07,07,34,4.70
2008,10,07,07,35,6.70
2008,10,07,07,36,5.80
2008,10,07,07,37,2.40
2008,10,07,07,38,12.60
2008,10,07,07,39,7.40
2008,10,07,07,40,4.00
2008,10,07,07,41,8.90
2008,10,07,07,42,6.90
2008,10,07,07,43,7.70
2008,10,07,07,44,6.10
2008,10,07,07,45,9.90
2008,10,07,07,46,7.10
2008,10,07,07,47,6.10
2008,10,07,07,48,6.50
2008,10,07,07,49,5.10
2008,10,07,07,50,2.50
2008,10,07,07,51,2.40
2008,10,07,07,52,5.10
2008,10,07,07,53,4.70
2008,10,07,07,54,3.20
2008,10,07,07,55,6.80
2008,10,07,07,56,8.30
2008,10,07,07,57,7.40
2008,10,07,07,58,4.50
2008,10,07,07,59,0.60
2008,10,07,08,00,5.40
2008,10,07,08,01,1.10
2008,10,07,08,02,5.60
2008,10,07,08,03,5.40
2008,10,07,08,04,0.10
2008,10,07,08,05,2.50
2008,10,07,08,06,0.90
2008,10,07,08,07,2.60
2008,10,07,08,08,6.80
2008,10,07,08,09,2.80
2008,10,07,08,10,3.10
2008,10,07,08,11,7.40
2008,10,07,08,12,5.20
2008,10,07,08,13,2.90
2008,10,07,08,14,4.10
2008,10,07,08,15,5.40
2008,10,07,08,16,8.00
2008,10,07,08,17,3.30
2008,10,07,08,18,7.60
2008,10,07,08,19,9.90
2008,10,07,08,20,4.50
2008,10,07,08,21,6.20
2008,10,07,08,22,4.70
2008,10,07,08,23,0.80
2008,10,07,08,24,3.90
2008,10,07,08,25,4.00
2008,10,07,08,26,0.90
2008,10,07,08,27,1.90
2008,10,07,08,28,6.20
2008,10,07,08,29,6.50
2008,10,07,08,30,0.20
2008,10,07,08,31,3.40
2008,10,07,08,32,5.20
2008,10,07,08,33,5.80
2008,10,07,08,34,9.70
2008,10,07,08,35,11.70
2008,10,07,08,36,4.70
2008,10,07,08,37,3.30
2008,10,07,08,38,0.80
2008,10,07,08,39,4.70
2008,10,07,08,40,3.60
2008,10,07,08,41,3.80
2008,10,07,08,42,3.40
2008,10,07,08,43,10.90
2008,10,07,08,44,11.80
2008,10,07,08,45,9.60
2008,10,07,08,46,7.90
2008,10,07,08,47,9.70
2008,10,07,08,48,10.40
2008,10,07,08,49,9.30
2008,10,07,08,50,9.80
2008,10,07,08,51,14.00
2008,10,07,08,52,7.90
2008,10,07,08,53,11.40
2008,10,07,08,54,6.20
2008,10,07,08,55,6.50
2008,10,07,08,56,10.60
2008,10,07,08,57,3.10
2008,10,07,08,58,14.30
2008,10,07,08,59,11.80
2008,10,07,09,00,9.40
2008,10,07,09,01,10.80
2008,10,07,09,02,9.60
2008,10,07,09,03,3.80
2008,10,07,09,04,2.60
2008,10,07,09,05,3.60
2008,10,07,09,06,3.10
2008,10,07,09,07,1.30
2008,10,07,09,08,3.40
2008,10,07,09,09,5.10
2008,10,07,09,10,3.50
2008,10,07,09,11,3.90
2008,10,07,09,12,2.30
2008,10,07,09,13,0.10
2008,10,07,09,14,7.10
2008,10,07,09,15,4.80
2008,10,07,09,16,1.80
2008,10,07,09,17,6.40
2008,10,07,09,18,2.20
2008,10,07,09,19,6.30
2008,10,07,09,20,8.20
2008,10,07,09,21,7.50
2008,10,07,09,22,9.20
2008,10,07,09,23,7.30
2008,10,07,09,24,10.50
2008,10,07,09,25,15.20
2008,10,07,09,26,12.20
2008,10,07,09,27,8.00
2008,10,07,09,28,11.40
2008,10,07,09,29,5.10
2008,10,07,09,30,8.00
2008,10,07,09,31,6.00
2008,10,07,09,32,5.40
2008,10,07,09,33,6.40
2008,10,07,09,34,2.60
2008,10,07,09,35,3.10
2008,10,07,09,36,5.50
2008,10,07,09,37,7.20
2008,10,07,09,38,7.60
2008,10,07,09,39,8.60
2008,10,07,09,40,4.80
2008,10,07,09,41,6.90
2008,10,07,09,42,10.40
2008,10,07,09,43,7.20
2008,10,07,09,44,5.80
2008,10,07,09,45,10.30
2008,10,07,09,46,14.10
2008,10,07,09,47,9.70
2008,10,07,09,48,5.90
2008,10,07,09,49,10.10
2008,10,07,09,50,11.70
2008,10,07,09,51,10.80
2008,10,07,09,52,10.20
2008,10,07,09,53,11.90
2008,10,07,09,54,12.60
2008,10,07,09,55,12.40
2008,10,07,09,56,2.80
2008,10,07,09,57,8.60
2008,10,07,09,58,6.40
2008,10,07,09,59,4.20
2008,10,07,10,00,14.10
2008,10,07,10,01,11.60
2008,10,07,10,02,13.00
2008,10,07,10,03,11.30
2008,10,07,10,04,5.70
2008,10,07,10,05,8.30
2008,10,07,10,06,5.30
2008,10,07,10,07,9.70
2008,10,07,10,08,11.30
2008,10,07,10,09,3.60
2008,10,07,10,10,8.60
2008,10,07,10,11,9.60
2008,10,07,10,12,7.60
2008,10,07,10,13,5.90
2008,10,07,10,14,3.60
2008,10,07,10,15,5.00
2008,10,07,10,16,7.80
2008,10,07,10,17,8.70
2008,10,07,10,18,8.60
2008,10,07,10,19,10.90
2008,10,07,10,20,9.00
2008,10,07,10,21,7.00
2008,10,07,10,22,7.10
2008,10,07,10,23,6.40
2008,10,07,10,24,3.80
2008,10,07,10,25,1.60
2008,10,07,10,26,4.60
2008,10,07,10,27,7.90
2008,10,07,10,28,5.00
2008,10,07,10,29,4.40
2008,10,07,10,30,7.10
2008,10,07,10,31,6.50
2008,10,07,10,32,2.00
2008,10,07,10,33,8.30
2008,10,07,10,34,6.10
2008,10,07,10,35,8.10
2008,10,07,10,36,4.50
2008,10,07,10,37,5.20
2008,10,07,10,38,6.80
2008,10,07,10,39,5.80
2008,10,07,10,40,13.80
2008,10,07,10,41,7.70
2008,10,07,10,42,8.00
2008,10,07,10,43,9.00
2008,10,07,10,44,4.60
2008,10,07,10,45,8.10
2008,10,07,10,46,7.10
2008,10,07,10,47,5.10
2008,10,07,10,48,6.10
2008,10,07,10,49,7.30
2008,10,07,10,50,4.00
2008,10,07,10,51,1.60
2008,10,07,10,52,8.40
2008,10,07,10,53,6.40
2008,10,07,10,54,2.90
2008,10,07,10,55,6.30
2008,10,07,10,56,3.40
2008,10,07,10,57,9.20
2008,10,07,10,58,2.70
2008,10,07,10,59,2.70
2008,10,07,11,00,7.30
2008,10,07,11,01,5.10
2008,10,07,11,02,8.90
2008,10,07,11,03,5.10
2008,10,07,11,04,8.20
2008,10,07,11,05,8.90
2008,10,07,11,06,9.90
2008,10,07,11,07,6.30
2008,10,07,11,08,5.20
2008,10,07,11,09,1.30
2008,10,07,11,10,5.60
2008,10,07,11,11,4.00
2008,10,07,11,12,9.20
2008,10,07,11,13,5.10
2008,10,07,11,14,3.90
2008,10,07,11,15,4.70
2008,10,07,11,16,3.10
2008,10,07,11,17,0.90
2008,10,07,11,18,2.70
2008,10,07,11,19,7.10
2008,10,07,11,20,6.00
2008,10,07,11,21,6.80
2008,10,07,11,22,9.00
2008,10,07,11,23,11.40
2008,10,07,11,24,13.60
2008,10,07,11,25,19.10
2008,10,07,11,26,18.30
2008,10,07,11,27,11.90
2008,10,07,11,28,10.10
2008,10,07,11,29,17.20
2008,10,07,11,30,9.70
2008,10,07,11,31,9.90
2008,10,07,11,32,19.50
2008,10,07,11,33,8.70
2008,10,07,11,34,3.80
2008,10,07,11,35,5.20
2008,10,07,11,36,5.60
2008,10,07,11,37,10.40
2008,10,07,11,38,10.10
2008,10,07,11,39,11.20
2008,10,07,11,40,1.90
2008,10,07,11,41,4.40
2008,10,07,11,42,4.30
2008,10,07,11,43,17.50
2008,10,07,11,44,11.90
2008,10,07,11,45,8.00
2008,10,07,11,46,5.70
2008,10,07,11,47,7.10
2008,10,07,11,48,4.60
2008,10,07,11,49,8.60
2008,10,07,11,50,10.50
2008,10,07,11,51,7.30
2008,10,07,11,52,10.60
2008,10,07,11,53,12.60
2008,10,07,11,54,15.80
2008,10,07,11,55,9.10
2008,10,07,11,56,4.40
2008,10,07,11,57,5.70
2008,10,07,11,58,10.60
2008,10,07,11,59,10.60
2008,10,07,12,00,9.90
2008,10,07,12,01,9.40
2008,10,07,12,02,3.80
2008,10,07,12,03,6.90
2008,10,07,12,04,12.80
2008,10,07,12,05,9.00
2008,10,07,12,06,3.40
2008,10,07,12,07,8.10
2008,10,07,12,08,13.50
2008,10,07,12,09,9.10
2008,10,07,12,10,8.90
2008,10,07,12,11,14.10
2008,10,07,12,12,12.10
2008,10,07,12,13,7.20
2008,10,07,12,14,12.30
2008,10,07,12,15,6.10
2008,10,07,12,16,15.30
2008,10,07,12,17,8.00
2008,10,07,12,18,14.30
2008,10,07,12,19,12.10
2008,10,07,12,20,16.10
2008,10,07,12,21,11.80
2008,10,07,12,22,10.10
2008,10,07,12,23,3.50
2008,10,07,12,24,8.40
2008,10,07,12,25,7.40
2008,10,07,12,26,4.40
2008,10,07,12,27,7.30
2008,10,07,12,28,8.60
2008,10,07,12,29,7.80
2008,10,07,12,30,9.50
2008,10,07,12,31,10.00
2008,10,07,12,32,7.40
2008,10,07,12,33,4.80
2008,10,07,12,34,5.30
2008,10,07,12,35,2.60
2008,10,07,12,36,0.20
2008,10,07,12,37,2.50
2008,10,07,12,38,5.90
2008,10,07,12,39,3.50
2008,10,07,12,40,6.50
2008,10,07,12,41,5.40
2008,10,07,12,42,10.00
2008,10,07,12,43,8.10
2008,10,07,12,44,3.20
2008,10,07,12,45,0.10
2008,10,07,12,46,0.50
2008,10,07,12,47,2.20
2008,10,07,12,48,6.40
2008,10,07,12,49,6.50
2008,10,07,12,50,8.50
2008,10,07,12,51,10.70
2008,10,07,12,52,6.30
2008,10,07,12,53,5.90
2008,10,07,12,54,9.40
2008,10,07,12,55,7.20
2008,10,07,12,56,8.60
2008,10,07,12,57,9.60
2008,10,07,12,58,6.60
2008,10,07,12,59,14.60
2008,10,07,13,00,4.20
2008,10,07,13,01,9.60
2008,10,07,13,02,7.00
2008,10,07,13,03,10.00
2008,10,07,13,04,3.20
2008,10,07,13,05,5.40
2008,10,07,13,06,3.50
2008,10,07,13,07,9.50
2008,10,07,13,08,9.10
2008,10,07,13,09,5.60
2008,10,07,13,10,6.90
2008,10,07,13,11,2.40
2008,10,07,13,12,14.70
2008,10,07,13,13,19.50
2008,10,07,13,14,13.50
2008,10,07,13,15,9.20
2008,10,07,13,16,8.70
2008,10,07,13,17,9.70
2008,10,07,13,18,9.90
2008,10,07,13,19,6.10
2008,10,07,13,20,9.80
2008,10,07,13,21,7.10
2008,10,07,13,22,5.30
2008,10,07,13,23,4.10
2008,10,07,13,24,0.80
2008,10,07,13,25,7.90
2008,10,07,13,26,6.80
2008,10,07,13,27,5.30
2008,10,07,13,28,2.00
2008,10,07,13,29,5.80
2008,10,07,13,30,7.10
2008,10,07,13,31,6.80
2008,10,07,13,32,4.80
2008,10,07,13,33,5.30
2008,10,07,13,34,5.40
2008,10,07,13,35,8.90
2008,10,07,13,36,9.00
2008,10,07,13,37,13.00
2008,10,07,13,38,8.10
2008,10,07,13,39,11.80
2008,10,07,13,40,4.30
2008,10,07,13,41,8.90
2008,10,07,13,42,11.30
2008,10,07,13,43,7.30
2008,10,07,13,44,8.00
2008,10,07,13,45,8.80
2008,10,07,13,46,13.50
2008,10,07,13,47,3.60
2008,10,07,13,48,5.20
2008,10,07,13,49,4.50
2008,10,07,13,50,7.10
2008,10,07,13,51,14.30
2008,10,07,13,52,9.70
2008,10,07,13,53,6.80
2008,10,07,13,54,8.10
2008,10,07,13,55,7.10
2008,10,07,13,56,4.40
2008,10,07,13,57,2.10
2008,10,07,13,58,3.80
2008,10,07,13,59,7.00
2008,10,07,14,00,7.10
2008,10,07,14,01,5.90
2008,10,07,14,02,9.90
2008,10,07,14,03,11.40
2008,10,07,14,04,15.60
2008,10,07,14,05,13.80
2008,10,07,14,06,10.40
2008,10,07,14,07,2.90
2008,10,07,14,08,2.70
2008,10,07,14,09,15.60
2008,10,07,14,10,17.30
2008,10,07,14,11,9.20
2008,10,07,14,12,3.10
2008,10,07,14,13,6.00
2008,10,07,14,14,3.30
2008,10,07,14,15,8.30
2008,10,07,14,16,10.80
2008,10,07,14,17,10.40
2008,10,07,14,18,8.80
2008,10,07,14,19,10.30
2008,10,07,14,20,6.40
2008,10,07,14,21,5.80
2008,10,07,14,22,1.60
2008,10,07,14,23,8.60
2008,10,07,14,24,8.70
2008,10,07,14,25,10.90
2008,10,07,14,26,16.20
2008,10,07,14,27,12.70
2008,10,07,14,28,5.60
2008,10,07,14,29,8.50
2008,10,07,14,30,5.60
2008,10,07,14,31,3.70
2008,10,07,14,32,4.70
2008,10,07,14,33,7.00
2008,10,07,14,34,5.80
2008,10,07,14,35,7.20
2008,10,07,14,36,10.40
2008,10,07,14,37,11.70
2008,10,07,14,38,11.60
2008,10,07,14,39,9.70
2008,10,07,14,40,13.80
2008,10,07,14,41,7.40
2008,10,07,14,42,6.40
2008,10,07,14,43,7.70
2008,10,07,14,44,14.60
2008,10,07,14,45,10.10
2008,10,07,14,46,8.00
2008,10,07,14,47,9.70
2008,10,07,14,48,10.50
2008,10,07,14,49,7.70
2008,10,07,14,50,9.80
2008,10,07,14,51,6.30
2008,10,07,14,52,8.60
2008,10,07,14,53,10.30
2008,10,07,14,54,8.40
2008,10,07,14,55,8.40
2008,10,07,14,56,18.10
2008,10,07,14,57,14.10
2008,10,07,14,58,9.50
2008,10,07,14,59,17.70
2008,10,07,15,00,9.70
2008,10,07,15,01,7.60
2008,10,07,15,02,11.10
2008,10,07,15,03,14.10
2008,10,07,15,04,14.50
2008,10,07,15,05,5.80
2008,10,07,15,06,10.10
2008,10,07,15,07,9.10
2008,10,07,15,08,9.20
2008,10,07,15,09,10.80
2008,10,07,15,10,8.20
2008,10,07,15,11,9.70
2008,10,07,15,12,13.90
2008,10,07,15,13,13.00
2008,10,07,15,14,11.30
2008,10,07,15,15,9.20
2008,10,07,15,16,6.90
2008,10,07,15,17,4.00
2008,10,07,15,18,4.80
2008,10,07,15,19,3.90
2008,10,07,15,20,6.90
2008,10,07,15,21,6.40
2008,10,07,15,22,13.80
2008,10,07,15,23,13.60
2008,10,07,15,24,11.70
2008,10,07,15,25,7.20
2008,10,07,15,26,8.40
2008,10,07,15,27,11.70
2008,10,07,15,28,6.00
2008,10,07,15,29,1.90
2008,10,07,15,30,5.00
2008,10,07,15,31,10.10
2008,10,07,15,32,7.20
2008,10,07,15,33,0.70
2008,10,07,15,34,3.70
2008,10,07,15,35,13.50
2008,10,07,15,36,7.20
2008,10,07,15,37,4.60
2008,10,07,15,38,7.40
2008,10,07,15,39,3.90
2008,10,07,15,40,6.60
2008,10,07,15,41,5.30
2008,10,07,15,42,12.10
2008,10,07,15,43,12.30
2008,10,07,15,44,6.90
2008,10,07,15,45,11.00
2008,10,07,15,46,11.40
2008,10,07,15,47,7.90
2008,10,07,15,48,6.30
2008,10,07,15,49,7.00
2008,10,07,15,50,8.60
2008,10,07,15,51,7.50
2008,10,07,15,52,3.00
2008,10,07,15,53,10.50
2008,10,07,15,54,5.20
2008,10,07,15,55,5.70
2008,10,07,15,56,5.40
2008,10,07,15,57,2.20
2008,10,07,15,58,11.70
2008,10,07,15,59,8.60
2008,10,07,16,00,7.70
2008,10,07,16,01,3.20
2008,10,07,16,02,7.50
2008,10,07,16,03,9.10
2008,10,07,16,04,9.70
2008,10,07,16,05,11.10
2008,10,07,16,06,7.10
2008,10,07,16,07,5.10
2008,10,07,16,08,9.40
2008,10,07,16,09,5.10
2008,10,07,16,10,5.10
2008,10,07,16,11,6.30
2008,10,07,16,12,4.50
2008,10,07,16,13,5.80
2008,10,07,16,14,2.00
2008,10,07,16,15,3.30
2008,10,07,16,16,0.80
2008,10,07,16,17,3.40
2008,10,07,16,18,3.40
2008,10,07,16,19,3.00
2008,10,07,16,20,2.30
2008,10,07,16,21,1.20
2008,10,07,16,22,3.00
2008,10,07,16,23,4.30
2008,10,07,16,24,9.20
2008,10,07,16,25,5.80
2008,10,07,16,26,8.90
2008,10,07,16,27,5.00
2008,10,07,16,28,5.60
2008,10,07,16,29,3.70
2008,10,07,16,30,3.10
2008,10,07,16,31,3.90
2008,10,07,16,32,8.20
2008,10,07,16,33,6.50
2008,10,07,16,34,3.40
2008,10,07,16,35,0.10
2008,10,07,16,36,0.90
2008,10,07,16,37,1.70
2008,10,07,16,38,0.60
2008,10,07,16,39,0.20
2008,10,07,16,40,0.00
2008,10,07,16,41,0.60
2008,10,07,16,42,3.30
2008,10,07,16,43,3.10
2008,10,07,16,44,1.00
2008,10,07,16,45,3.30
2008,10,07,16,46,5.80
2008,10,07,16,47,1.20
2008,10,07,16,48,1.80
2008,10,07,16,49,0.10
2008,10,07,16,50,0.80
2008,10,07,16,51,2.60
2008,10,07,16,52,2.60
2008,10,07,16,53,4.10
2008,10,07,16,54,3.50
2008,10,07,16,55,0.20
2008,10,07,16,56,3.10
2008,10,07,16,57,2.30
2008,10,07,16,58,2.90
2008,10,07,16,59,5.20
2008,10,07,17,00,8.30
2008,10,07,17,01,8.50
2008,10,07,17,02,2.60
2008,10,07,17,03,5.80
2008,10,07,17,04,1.40
2008,10,07,17,05,5.80
2008,10,07,17,06,6.00
2008,10,07,17,07,8.50
2008,10,07,17,08,3.90
2008,10,07,17,09,0.40
2008,10,07,17,10,0.90
2008,10,07,17,11,0.20
2008,10,07,17,12,1.10
2008,10,07,17,13,2.70
2008,10,07,17,14,0.20
2008,10,07,17,15,1.80
2008,10,07,17,16,4.30
2008,10,07,17,17,0.00
2008,10,07,17,18,2.20
2008,10,07,17,19,13.00
2008,10,07,17,20,5.80
2008,10,07,17,21,6.90
2008,10,07,17,22,4.00
2008,10,07,17,23,4.10
2008,10,07,17,24,3.20
2008,10,07,17,25,3.50
2008,10,07,17,26,3.90
2008,10,07,17,27,4.30
2008,10,07,17,28,4.60
2008,10,07,17,29,3.10
2008,10,07,17,30,5.30
2008,10,07,17,31,3.60
2008,10,07,17,32,3.00
2008,10,07,17,33,3.10
2008,10,07,17,34,3.70
2008,10,07,17,35,1.50
2008,10,07,17,36,3.50
2008,10,07,17,37,4.20
2008,10,07,17,38,5.70
2008,10,07,17,39,4.00
2008,10,07,17,40,7.30
2008,10,07,17,41,4.40
2008,10,07,17,42,1.70
2008,10,07,17,43,2.40
2008,10,07,17,44,0.10
2008,10,07,17,45,0.00
2008,10,07,17,46,0.00
2008,10,07,17,47,0.00
2008,10,07,17,48,0.10
2008,10,07,17,49,0.00
2008,10,07,17,50,0.10
2008,10,07,17,51,1.30
2008,10,07,17,52,1.50
2008,10,07,17,53,0.00
2008,10,07,17,54,0.20
2008,10,07,17,55,0.30
2008,10,07,17,56,0.60
2008,10,07,17,57,0.30
2008,10,07,17,58,0.70
2008,10,07,17,59,0.20
2008,10,07,18,00,0.00
2008,10,07,18,01,0.00
2008,10,07,18,02,0.00
2008,10,07,18,03,0.00
2008,10,07,18,04,0.20
2008,10,07,18,05,0.80
2008,10,07,18,06,0.30
2008,10,07,18,07,0.30
2008,10,07,18,08,0.10
2008,10,07,18,09,0.00
2008,10,07,18,10,0.00
2008,10,07,18,11,0.00
2008,10,07,18,12,0.30
2008,10,07,18,13,1.00
2008,10,07,18,14,2.10
2008,10,07,18,15,5.80
2008,10,07,18,16,4.20
2008,10,07,18,17,1.70
2008,10,07,18,18,0.00
2008,10,07,18,19,0.00
2008,10,07,18,20,0.00
2008,10,07,18,21,1.80
2008,10,07,18,22,0.60
2008,10,07,18,23,0.00
2008,10,07,18,24,0.00
2008,10,07,18,25,0.00
2008,10,07,18,26,0.50
2008,10,07,18,27,0.00
2008,10,07,18,28,1.30
2008,10,07,18,29,2.00
2008,10,07,18,30,1.90
2008,10,07,18,31,1.20
2008,10,07,18,32,0.20
2008,10,07,18,33,5.20
2008,10,07,18,34,3.10
2008,10,07,18,35,2.60
2008,10,07,18,36,1.80
2008,10,07,18,37,1.40
2008,10,07,18,38,2.10
2008,10,07,18,39,2.40
2008,10,07,18,40,2.10
2008,10,07,18,41,7.60
2008,10,07,18,42,4.00
2008,10,07,18,43,0.50
2008,10,07,18,44,0.30
2008,10,07,18,45,0.30
2008,10,07,18,46,1.40
2008,10,07,18,47,1.80
2008,10,07,18,48,0.10
2008,10,07,18,49,0.30
2008,10,07,18,50,0.70
2008,10,07,18,51,1.70
2008,10,07,18,52,3.20
2008,10,07,18,53,3.10
2008,10,07,18,54,5.10
2008,10,07,18,55,3.30
2008,10,07,18,56,0.90
2008,10,07,18,57,2.20
2008,10,07,18,58,6.70
2008,10,07,18,59,0.30
2008,10,07,19,00,0.00
2008,10,07,19,01,0.00
2008,10,07,19,02,0.50
2008,10,07,19,03,2.60
2008,10,07,19,04,3.10
2008,10,07,19,05,1.90
2008,10,07,19,06,0.20
2008,10,07,19,07,0.60
2008,10,07,19,08,0.60
2008,10,07,19,09,1.80
2008,10,07,19,10,1.60
2008,10,07,19,11,2.10
2008,10,07,19,12,2.30
2008,10,07,19,13,1.40
2008,10,07,19,14,2.40
2008,10,07,19,15,4.00
2008,10,07,19,16,4.50
2008,10,07,19,17,2.80
2008,10,07,19,18,2.70
2008,10,07,19,19,9.30
2008,10,07,19,20,9.90
2008,10,07,19,21,10.40
2008,10,07,19,22,4.40
2008,10,07,19,23,10.60
2008,10,07,19,24,4.90
2008,10,07,19,25,3.30
2008,10,07,19,26,3.00
2008,10,07,19,27,5.40
2008,10,07,19,28,9.00
2008,10,07,19,29,2.00
2008,10,07,19,30,2.80
2008,10,07,19,31,2.50
2008,10,07,19,32,3.00
2008,10,07,19,33,2.40
2008,10,07,19,34,3.10
2008,10,07,19,35,2.40
2008,10,07,19,36,6.50
2008,10,07,19,37,9.60
2008,10,07,19,38,7.70
2008,10,07,19,39,3.40
2008,10,07,19,40,7.50
2008,10,07,19,41,6.60
2008,10,07,19,42,4.80
2008,10,07,19,43,5.50
2008,10,07,19,44,11.30
2008,10,07,19,45,13.80
2008,10,07,19,46,12.50
2008,10,07,19,47,7.20
2008,10,07,19,48,11.00
2008,10,07,19,49,4.60
2008,10,07,19,50,3.90
2008,10,07,19,51,7.30
2008,10,07,19,52,4.50
2008,10,07,19,53,10.90
2008,10,07,19,54,10.90
2008,10,07,19,55,5.20
2008,10,07,19,56,4.30
2008,10,07,19,57,4.00
2008,10,07,19,58,8.90
2008,10,07,19,59,9.20
2008,10,07,20,00,12.00
2008,10,07,20,01,8.70
2008,10,07,20,02,13.60
2008,10,07,20,03,11.20
2008,10,07,20,04,12.30
2008,10,07,20,05,4.00
2008,10,07,20,06,1.90
2008,10,07,20,07,10.10
2008,10,07,20,08,4.60
2008,10,07,20,09,2.70
2008,10,07,20,10,2.70
2008,10,07,20,11,7.20
2008,10,07,20,12,6.30
2008,10,07,20,13,5.80
2008,10,07,20,14,2.60
2008,10,07,20,15,2.10
2008,10,07,20,16,2.90
2008,10,07,20,17,1.60
2008,10,07,20,18,0.80
2008,10,07,20,19,1.80
2008,10,07,20,20,1.90
2008,10,07,20,21,2.30
2008,10,07,20,22,0.60
2008,10,07,20,23,2.00
2008,10,07,20,24,5.50
2008,10,07,20,25,4.30
2008,10,07,20,26,5.20
2008,10,07,20,27,4.60
2008,10,07,20,28,4.40
2008,10,07,20,29,1.80
2008,10,07,20,30,3.00
2008,10,07,20,31,8.20
2008,10,07,20,32,0.90
2008,10,07,20,33,0.60
2008,10,07,20,34,4.00
2008,10,07,20,35,1.20
2008,10,07,20,36,1.60
2008,10,07,20,37,0.00
2008,10,07,20,38,1.00
2008,10,07,20,39,3.10
2008,10,07,20,40,0.00
2008,10,07,20,41,1.40
2008,10,07,20,42,0.10
2008,10,07,20,43,0.00
2008,10,07,20,44,1.30
2008,10,07,20,45,0.00
2008,10,07,20,46,0.80
2008,10,07,20,47,5.30
2008,10,07,20,48,6.90
2008,10,07,20,49,5.20
2008,10,07,20,50,4.50
2008,10,07,20,51,2.60
2008,10,07,20,52,3.80
2008,10,07,20,53,1.20
2008,10,07,20,54,1.20
2008,10,07,20,55,6.60
2008,10,07,20,56,6.20
2008,10,07,20,57,3.30
2008,10,07,20,58,1.70
2008,10,07,20,59,2.90
2008,10,07,21,00,2.00
2008,10,07,21,01,3.90
2008,10,07,21,02,6.30
2008,10,07,21,03,2.70
2008,10,07,21,04,1.40
2008,10,07,21,05,1.00
2008,10,07,21,06,1.30
2008,10,07,21,07,6.80
2008,10,07,21,08,3.00
2008,10,07,21,09,2.50
2008,10,07,21,10,2.40
2008,10,07,21,11,3.40
2008,10,07,21,12,0.40
2008,10,07,21,13,0.80
2008,10,07,21,14,2.20
2008,10,07,21,15,2.60
2008,10,07,21,16,2.50
2008,10,07,21,17,5.10
2008,10,07,21,18,4.60
2008,10,07,21,19,2.20
2008,10,07,21,20,4.70
2008,10,07,21,21,4.30
2008,10,07,21,22,3.00
2008,10,07,21,23,4.50
2008,10,07,21,24,2.10
2008,10,07,21,25,2.80
2008,10,07,21,26,1.30
2008,10,07,21,27,1.70
2008,10,07,21,28,5.90
2008,10,07,21,29,6.80
2008,10,07,21,30,9.00
2008,10,07,21,31,2.50
2008,10,07,21,32,7.10
2008,10,07,21,33,1.10
2008,10,07,21,34,4.70
2008,10,07,21,35,6.40
2008,10,07,21,36,4.50
2008,10,07,21,37,3.50
2008,10,07,21,38,2.10
2008,10,07,21,39,4.70
2008,10,07,21,40,3.80
2008,10,07,21,41,4.80
2008,10,07,21,42,5.30
2008,10,07,21,43,3.20
2008,10,07,21,44,6.10
2008,10,07,21,45,3.10
2008,10,07,21,46,5.50
2008,10,07,21,47,4.60
2008,10,07,21,48,5.50
2008,10,07,21,49,6.40
2008,10,07,21,50,7.40
2008,10,07,21,51,6.70
2008,10,07,21,52,5.10
2008,10,07,21,53,4.30
2008,10,07,21,54,2.00
2008,10,07,21,55,5.50
2008,10,07,21,56,3.00
2008,10,07,21,57,2.70
2008,10,07,21,58,1.60
2008,10,07,21,59,2.60
2008,10,07,22,00,4.80
2008,10,07,22,01,8.50
2008,10,07,22,02,4.60
2008,10,07,22,03,3.30
2008,10,07,22,04,7.60
2008,10,07,22,05,2.10
2008,10,07,22,06,6.30
2008,10,07,22,07,5.70
2008,10,07,22,08,7.70
2008,10,07,22,09,6.60
2008,10,07,22,10,7.60
2008,10,07,22,11,6.80
2008,10,07,22,12,6.50
2008,10,07,22,13,1.90
2008,10,07,22,14,2.90
2008,10,07,22,15,5.40
2008,10,07,22,16,3.20
2008,10,07,22,17,5.90
2008,10,07,22,18,7.90
2008,10,07,22,19,7.60
2008,10,07,22,20,5.60
2008,10,07,22,21,5.60
2008,10,07,22,22,5.00
2008,10,07,22,23,7.00
2008,10,07,22,24,4.60
2008,10,07,22,25,2.60
2008,10,07,22,26,6.10
2008,10,07,22,27,8.10
2008,10,07,22,28,8.80
2008,10,07,22,29,7.10
2008,10,07,22,30,4.50
2008,10,07,22,31,2.40
2008,10,07,22,32,1.30
2008,10,07,22,33,2.90
2008,10,07,22,34,1.80
2008,10,07,22,35,2.70
2008,10,07,22,36,3.60
2008,10,07,22,37,4.10
2008,10,07,22,38,0.20
2008,10,07,22,39,0.10
2008,10,07,22,40,0.30
2008,10,07,22,41,2.10
2008,10,07,22,42,2.40
2008,10,07,22,43,0.50
2008,10,07,22,44,1.40
2008,10,07,22,45,4.90
2008,10,07,22,46,3.00
2008,10,07,22,47,1.40
2008,10,07,22,48,0.10
2008,10,07,22,49,2.60
2008,10,07,22,50,1.90
2008,10,07,22,51,1.10
2008,10,07,22,52,1.70
2008,10,07,22,53,3.00
2008,10,07,22,54,2.20
2008,10,07,22,55,3.90
2008,10,07,22,56,4.80
2008,10,07,22,57,3.80
2008,10,07,22,58,3.40
2008,10,07,22,59,7.80
2008,10,07,23,00,5.30
2008,10,07,23,01,2.50
2008,10,07,23,02,4.70
2008,10,07,23,03,8.20
2008,10,07,23,04,3.20
2008,10,07,23,05,3.50
2008,10,07,23,06,5.80
2008,10,07,23,07,3.00
2008,10,07,23,08,4.00
2008,10,07,23,09,1.50
2008,10,07,23,10,2.00
2008,10,07,23,11,3.00
2008,10,07,23,12,3.50
2008,10,07,23,13,1.70
2008,10,07,23,14,1.20
2008,10,07,23,15,3.30
2008,10,07,23,16,9.30
2008,10,07,23,17,1.80
2008,10,07,23,18,3.30
2008,10,07,23,19,4.70
2008,10,07,23,20,5.80
2008,10,07,23,21,5.40
2008,10,07,23,22,1.30
2008,10,07,23,23,1.60
2008,10,07,23,24,0.20
2008,10,07,23,25,5.50
2008,10,07,23,26,5.60
2008,10,07,23,27,2.30
2008,10,07,23,28,5.30
2008,10,07,23,29,4.80
2008,10,07,23,30,6.40
2008,10,07,23,31,5.10
2008,10,07,23,32,4.40
2008,10,07,23,33,4.90